| time (UTC) | temp F | wind direction | speed MPH | gust MPH | rain 1hr in | rain 24hr in | rain mn in | humidity % | barometer mb |
| 20260904205904 | 71 | 101 | 0.0 | 0.0 | 0.00 | 0.00 | 0.00 | 69 | 1009.3 |
| 20260904205404 | 71 | 101 | 0.0 | 1.0 | 0.00 | 0.00 | 0.00 | 68 | 1009.3 |
| 20260904204904 | 71 | 101 | 0.0 | 0.0 | 0.00 | 0.00 | 0.00 | 68 | 1009.4 |
| 20260904204404 | 71 | 101 | 0.0 | 2.0 | 0.00 | 0.00 | 0.00 | 68 | 1009.4 |
| 20260904203905 | 71 | 101 | 1.0 | 2.0 | 0.00 | 0.00 | 0.00 | 67 | 1009.6 |
| 20260904203404 | 71 | 101 | 0.0 | 1.0 | 0.00 | 0.00 | 0.00 | 67 | 1009.6 |
| 20260904202904 | 72 | 101 | 1.0 | 2.0 | 0.00 | 0.00 | 0.00 | 66 | 1009.7 |
| 20260904202405 | 72 | 101 | 1.0 | 3.0 | 0.00 | 0.00 | 0.00 | 66 | 1009.7 |
| 20260904201405 | 72 | 101 | 2.0 | 3.0 | 0.00 | 0.00 | 0.00 | 65 | 1009.8 |
| 20260904200904 | 73 | 206 | 1.0 | 3.0 | 0.00 | 0.00 | 0.00 | 65 | 1009.8 |
| 20260904200404 | 73 | 206 | 1.0 | 2.0 | 0.00 | 0.00 | 0.00 | 64 | 1009.8 |
| 20260904195904 | 73 | 206 | 0.0 | 2.0 | 0.00 | 0.00 | 0.00 | 63 | 1009.9 |
| 20260904195404 | 73 | 206 | 1.0 | 2.0 | 0.00 | 0.00 | 0.00 | 63 | 1010.0 |
| 20260904194405 | 74 | 206 | 0.0 | 1.0 | 0.00 | 0.00 | 0.00 | 61 | 1010.0 |
| 20260904193904 | 74 | 206 | 0.0 | 0.0 | 0.00 | 0.00 | 0.00 | 60 | 1009.9 |
| 20260904193404 | 74 | 206 | 0.0 | 1.0 | 0.00 | 0.00 | 0.00 | 59 | 1009.9 |
| 20260904192905 | 75 | 206 | 0.0 | 0.0 | 0.00 | 0.00 | 0.00 | 59 | 1010.0 |
| 20260904192404 | 75 | 206 | 0.0 | 0.0 | 0.00 | 0.00 | 0.00 | 59 | 1010.0 |
| 20260904191404 | 76 | 207 | 1.0 | 5.0 | 0.00 | 0.00 | 0.00 | 58 | 1010.0 |
| 20260904190905 | 76 | 213 | 0.0 | 3.0 | 0.00 | 0.00 | 0.00 | 58 | 1010.1 |
| 20260904190405 | 76 | 213 | 2.0 | 3.0 | 0.00 | 0.00 | 0.00 | 58 | 1010.1 |
| 20260904185904 | 77 | 213 | 2.0 | 3.0 | 0.00 | 0.00 | 0.00 | 57 | 1010.0 |
| 20260904185404 | 77 | 213 | 0.0 | 1.0 | 0.00 | 0.00 | 0.00 | 56 | 1010.0 |
| 20260904184904 | 77 | 213 | 1.0 | 2.0 | 0.00 | 0.00 | 0.00 | 56 | 1009.9 |
| 20260904184404 | 78 | 213 | 1.0 | 3.0 | 0.00 | 0.00 | 0.00 | 55 | 1009.9 |
| 20260904183404 | 78 | 213 | 3.0 | 3.0 | 0.00 | 0.00 | 0.00 | 54 | 1009.8 |
| 20260904182904 | 79 | 211 | 2.0 | 3.0 | 0.00 | 0.00 | 0.00 | 54 | 1009.7 |
| 20260904182404 | 79 | 211 | 2.0 | 3.0 | 0.00 | 0.00 | 0.00 | 53 | 1009.7 |
| 20260904181904 | 79 | 211 | 2.0 | 3.0 | 0.00 | 0.00 | 0.00 | 53 | 1009.7 |
| 20260904181404 | 79 | 211 | 3.0 | 5.0 | 0.00 | 0.00 | 0.00 | 52 | 1009.7 |
| 20260904180904 | 80 | 207 | 3.0 | 5.0 | 0.00 | 0.00 | 0.00 | 52 | 1009.5 |
| 20260904175906 | 80 | 204 | 2.0 | 3.0 | 0.00 | 0.00 | 0.00 | 51 | 1009.4 |
| 20260904175404 | 81 | 203 | 2.0 | 5.0 | 0.00 | 0.00 | 0.00 | 51 | 1009.3 |
| 20260904174904 | 81 | 202 | 2.0 | 5.0 | 0.00 | 0.00 | 0.00 | 50 | 1009.2 |
| 20260904174404 | 81 | 198 | 3.0 | 7.0 | 0.00 | 0.00 | 0.00 | 50 | 1009.2 |
| 20260904173904 | 81 | 189 | 3.0 | 8.0 | 0.00 | 0.00 | 0.00 | 49 | 1009.2 |
| 20260904173405 | 81 | 195 | 4.0 | 8.0 | 0.00 | 0.00 | 0.00 | 49 | 1009.2 |
| 20260904172904 | 82 | 238 | 4.0 | 10.0 | 0.00 | 0.00 | 0.00 | 49 | 1009.2 |
| 20260904171404 | 82 | 194 | 5.0 | 8.0 | 0.00 | 0.00 | 0.00 | 48 | 1009.2 |
| 20260904170905 | 83 | 219 | 4.0 | 12.0 | 0.00 | 0.00 | 0.00 | 48 | 1009.1 |
| 20260904170404 | 83 | 224 | 4.0 | 8.0 | 0.00 | 0.00 | 0.00 | 48 | 1009.1 |
| 20260904165405 | 83 | 209 | 6.0 | 12.0 | 0.00 | 0.00 | 0.00 | 47 | 1009.0 |
| 20260904164904 | 83 | 216 | 5.0 | 10.0 | 0.00 | 0.00 | 0.00 | 47 | 1009.1 |
| 20260904164404 | 84 | 202 | 6.0 | 10.0 | 0.00 | 0.00 | 0.00 | 46 | 1009.1 |
| 20260904163904 | 84 | 218 | 7.0 | 18.0 | 0.00 | 0.00 | 0.00 | 46 | 1009.1 |
| 20260904163404 | 84 | 218 | 5.0 | 8.0 | 0.00 | 0.00 | 0.00 | 46 | 1009.2 |
| 20260904162905 | 84 | 218 | 5.0 | 10.0 | 0.00 | 0.00 | 0.00 | 45 | 1009.3 |
| 20260904162404 | 84 | 213 | 5.0 | 12.0 | 0.00 | 0.00 | 0.00 | 45 | 1009.4 |
| 20260904161904 | 85 | 226 | 6.0 | 9.0 | 0.00 | 0.00 | 0.00 | 44 | 1009.5 |
| 20260904161404 | 85 | 220 | 6.0 | 12.0 | 0.00 | 0.00 | 0.00 | 45 | 1009.6 |
| 20260904160905 | 85 | 227 | 6.0 | 12.0 | 0.00 | 0.00 | 0.00 | 44 | 1009.7 |
| 20260904160405 | 85 | 235 | 7.0 | 13.0 | 0.00 | 0.00 | 0.00 | 44 | 1009.7 |
| 20260904155904 | 86 | 229 | 3.0 | 7.0 | 0.00 | 0.00 | 0.00 | 45 | 1009.8 |
| 20260904155404 | 86 | 215 | 6.0 | 15.0 | 0.00 | 0.00 | 0.00 | 44 | 1009.9 |
| 20260904154904 | 86 | 221 | 9.0 | 17.0 | 0.00 | 0.00 | 0.00 | 43 | 1009.9 |
| 20260904154404 | 87 | 225 | 7.0 | 16.0 | 0.00 | 0.00 | 0.00 | 43 | 1010.0 |
| 20260904153904 | 87 | 240 | 8.0 | 17.0 | 0.00 | 0.00 | 0.00 | 43 | 1010.0 |
| 20260904152905 | 87 | 213 | 7.0 | 12.0 | 0.00 | 0.00 | 0.00 | 44 | 1010.2 |
| 20260904152404 | 86 | 228 | 9.0 | 14.0 | 0.00 | 0.00 | 0.00 | 44 | 1010.3 |
| 20260904151905 | 86 | 217 | 5.0 | 12.0 | 0.00 | 0.00 | 0.00 | 45 | 1010.3 |
| 20260904151404 | 85 | 235 | 6.0 | 12.0 | 0.00 | 0.00 | 0.00 | 46 | 1010.4 |
| 20260904150905 | 85 | 194 | 6.0 | 16.0 | 0.00 | 0.00 | 0.00 | 46 | 1010.5 |
| 20260904150405 | 84 | 197 | 6.0 | 12.0 | 0.00 | 0.00 | 0.00 | 47 | 1010.6 |
| 20260904145904 | 84 | 202 | 7.0 | 12.0 | 0.00 | 0.00 | 0.00 | 46 | 1010.7 |
| 20260904144904 | 83 | 204 | 5.0 | 12.0 | 0.00 | 0.00 | 0.00 | 48 | 1010.9 |
| 20260904144405 | 83 | 217 | 7.0 | 12.0 | 0.00 | 0.00 | 0.00 | 48 | 1010.9 |
| 20260904143905 | 83 | 219 | 6.0 | 15.0 | 0.00 | 0.00 | 0.00 | 49 | 1011.0 |
| 20260904143404 | 83 | 204 | 4.0 | 8.0 | 0.00 | 0.00 | 0.00 | 49 | 1011.0 |
| 20260904142404 | 83 | 205 | 3.0 | 7.0 | 0.00 | 0.00 | 0.00 | 49 | 1011.2 |
| 20260904141904 | 83 | 209 | 5.0 | 10.0 | 0.00 | 0.00 | 0.00 | 49 | 1011.3 |
| 20260904140905 | 83 | 232 | 3.0 | 6.0 | 0.00 | 0.00 | 0.00 | 49 | 1011.4 |
| 20260904140404 | 84 | 233 | 6.0 | 12.0 | 0.00 | 0.01 | 0.00 | 49 | 1011.5 |
| 20260904135904 | 84 | 249 | 6.0 | 13.0 | 0.00 | 0.01 | 0.00 | 49 | 1011.6 |
| 20260904135404 | 84 | 240 | 7.0 | 14.0 | 0.00 | 0.01 | 0.00 | 49 | 1011.7 |
| 20260904134904 | 84 | 243 | 5.0 | 12.0 | 0.00 | 0.01 | 0.00 | 50 | 1011.7 |
| 20260904133904 | 83 | 204 | 6.0 | 12.0 | 0.00 | 0.01 | 0.00 | 50 | 1011.9 |
| 20260904133404 | 83 | 202 | 5.0 | 12.0 | 0.00 | 0.01 | 0.00 | 50 | 1012.0 |
| 20260904132904 | 83 | 231 | 5.0 | 12.0 | 0.00 | 0.01 | 0.00 | 50 | 1012.0 |
| 20260904132404 | 83 | 228 | 7.0 | 12.0 | 0.00 | 0.01 | 0.00 | 51 | 1012.0 |
| 20260904131904 | 82 | 208 | 7.0 | 12.0 | 0.00 | 0.01 | 0.00 | 52 | 1012.1 |
| 20260904131404 | 82 | 232 | 5.0 | 10.0 | 0.00 | 0.01 | 0.00 | 53 | 1012.1 |
| 20260904130404 | 81 | 233 | 3.0 | 7.0 | 0.00 | 0.01 | 0.00 | 54 | 1012.4 |
| 20260904125904 | 81 | 200 | 4.0 | 8.0 | 0.00 | 0.01 | 0.00 | 55 | 1012.4 |
| 20260904125406 | 80 | 180 | 1.0 | 8.0 | 0.00 | 0.01 | 0.00 | 56 | 1012.4 |
| 20260904124904 | 80 | 216 | 3.0 | 8.0 | 0.00 | 0.01 | 0.00 | 58 | 1012.5 |
| 20260904124404 | 79 | 196 | 4.0 | 10.0 | 0.00 | 0.01 | 0.00 | 57 | 1012.6 |
| 20260904123904 | 79 | 201 | 3.0 | 9.0 | 0.00 | 0.01 | 0.00 | 57 | 1012.7 |
| 20260904123404 | 79 | 197 | 4.0 | 9.0 | 0.00 | 0.01 | 0.00 | 57 | 1012.8 |
| 20260904122904 | 79 | 199 | 3.0 | 12.0 | 0.00 | 0.01 | 0.00 | 58 | 1012.8 |
| 20260904122405 | 78 | 191 | 4.0 | 9.0 | 0.00 | 0.01 | 0.00 | 58 | 1012.9 |
| 20260904121904 | 78 | 184 | 3.0 | 8.0 | 0.00 | 0.01 | 0.00 | 57 | 1013.0 |
| 20260904121404 | 78 | 212 | 3.0 | 8.0 | 0.00 | 0.01 | 0.00 | 57 | 1013.1 |
| 20260904120904 | 78 | 193 | 2.0 | 5.0 | 0.00 | 0.01 | 0.00 | 57 | 1013.2 |
| 20260904120404 | 78 | 234 | 6.0 | 12.0 | 0.00 | 0.01 | 0.00 | 57 | 1013.4 |
| 20260904115904 | 78 | 218 | 4.0 | 8.0 | 0.00 | 0.01 | 0.00 | 58 | 1013.4 |
| 20260904113904 | 78 | 187 | 6.0 | 14.0 | 0.00 | 0.01 | 0.00 | 58 | 1013.7 |
| 20260904113404 | 78 | 170 | 1.0 | 6.0 | 0.00 | 0.01 | 0.00 | 60 | 1013.8 |
| 20260904112904 | 78 | 198 | 3.0 | 8.0 | 0.00 | 0.01 | 0.00 | 60 | 1013.9 |
| 20260904112404 | 77 | 190 | 3.0 | 12.0 | 0.00 | 0.01 | 0.00 | 59 | 1013.9 |
| 20260904111404 | 77 | 202 | 5.0 | 7.0 | 0.00 | 0.01 | 0.00 | 59 | 1014.0 |
| 20260904110904 | 77 | 192 | 3.0 | 9.0 | 0.00 | 0.01 | 0.00 | 61 | 1014.0 |
| 20260904110404 | 76 | 173 | 2.0 | 5.0 | 0.00 | 0.01 | 0.00 | 61 | 1014.1 |
| 20260904105904 | 76 | 178 | 4.0 | 9.0 | 0.00 | 0.01 | 0.00 | 61 | 1014.2 |
| 20260904105404 | 76 | 182 | 5.0 | 10.0 | 0.00 | 0.01 | 0.00 | 62 | 1014.3 |
| 20260904104904 | 76 | 134 | 3.0 | 8.0 | 0.00 | 0.01 | 0.00 | 62 | 1014.3 |
| 20260904104404 | 75 | 180 | 3.0 | 7.0 | 0.00 | 0.01 | 0.00 | 64 | 1014.4 |
| 20260904103905 | 75 | 159 | 1.0 | 3.0 | 0.00 | 0.01 | 0.00 | 63 | 1014.6 |
| 20260904101904 | 75 | 190 | 3.0 | 9.0 | 0.00 | 0.01 | 0.00 | 63 | 1014.9 |
| 20260904101404 | 75 | 186 | 3.0 | 7.0 | 0.00 | 0.01 | 0.00 | 65 | 1015.0 |
| 20260904100905 | 75 | 208 | 4.0 | 12.0 | 0.00 | 0.01 | 0.00 | 63 | 1015.0 |
| 20260904100405 | 74 | 219 | 5.0 | 8.0 | 0.00 | 0.01 | 0.00 | 66 | 1015.1 |
| 20260904095904 | 74 | 231 | 3.0 | 7.0 | 0.00 | 0.01 | 0.00 | 67 | 1015.3 |
| 20260904094904 | 73 | 235 | 5.0 | 8.0 | 0.00 | 0.01 | 0.00 | 67 | 1015.5 |
| 20260904094404 | 73 | 238 | 5.0 | 10.0 | 0.00 | 0.01 | 0.00 | 68 | 1015.5 |
| 20260904093904 | 73 | 207 | 2.0 | 7.0 | 0.00 | 0.01 | 0.00 | 68 | 1015.6 |
| 20260904092904 | 73 | 193 | 2.0 | 5.0 | 0.00 | 0.01 | 0.00 | 69 | 1015.7 |
| 20260904092404 | 73 | 188 | 2.0 | 5.0 | 0.00 | 0.01 | 0.00 | 68 | 1015.8 |
| 20260904091904 | 73 | 180 | 3.0 | 6.0 | 0.00 | 0.01 | 0.00 | 68 | 1015.8 |
| 20260904091404 | 73 | 207 | 4.0 | 8.0 | 0.00 | 0.01 | 0.00 | 68 | 1015.8 |
| 20260904090904 | 73 | 214 | 3.0 | 6.0 | 0.00 | 0.01 | 0.00 | 69 | 1015.8 |
| 20260904085904 | 73 | 217 | 5.0 | 10.0 | 0.00 | 0.01 | 0.00 | 68 | 1015.9 |
| 20260904084905 | 72 | 231 | 3.0 | 8.0 | 0.00 | 0.01 | 0.00 | 70 | 1016.0 |
| 20260904084405 | 72 | 174 | 5.0 | 7.0 | 0.00 | 0.01 | 0.00 | 70 | 1016.1 |
| 20260904083904 | 71 | 194 | 3.0 | 6.0 | 0.00 | 0.01 | 0.00 | 70 | 1016.2 |
| 20260904083405 | 71 | 186 | 1.0 | 5.0 | 0.00 | 0.01 | 0.00 | 70 | 1016.3 |
| 20260904081904 | 70 | 205 | 4.0 | 6.0 | 0.00 | 0.01 | 0.00 | 72 | 1016.3 |
| 20260904080404 | 69 | 175 | 3.0 | 6.0 | 0.00 | 0.01 | 0.00 | 73 | 1016.5 |
| 20260904075905 | 69 | 173 | 3.0 | 6.0 | 0.00 | 0.01 | 0.00 | 74 | 1016.6 |
| 20260904075404 | 68 | 245 | 4.0 | 6.0 | 0.00 | 0.01 | 0.00 | 75 | 1016.7 |
| 20260904074904 | 68 | 210 | 1.0 | 3.0 | 0.00 | 0.01 | 0.00 | 75 | 1016.6 |
| 20260904074404 | 68 | 222 | 1.0 | 3.0 | 0.00 | 0.01 | 0.00 | 76 | 1016.5 |
| 20260904073905 | 68 | 222 | 3.0 | 3.0 | 0.00 | 0.01 | 0.00 | 76 | 1016.6 |
| 20260904072904 | 67 | 222 | 3.0 | 5.0 | 0.00 | 0.01 | 0.00 | 76 | 1016.6 |
| 20260904072404 | 67 | 204 | 1.0 | 3.0 | 0.00 | 0.01 | 0.00 | 77 | 1016.5 |
| 20260904071905 | 67 | 204 | 2.0 | 3.0 | 0.00 | 0.01 | 0.00 | 77 | 1016.5 |
| 20260904071404 | 66 | 204 | 3.0 | 6.0 | 0.00 | 0.01 | 0.00 | 78 | 1016.5 |
| 20260904070404 | 65 | 209 | 2.0 | 3.0 | 0.00 | 0.01 | 0.00 | 80 | 1016.5 |
| 20260904064904 | 64 | 242 | 1.0 | 5.0 | 0.00 | 0.01 | 0.00 | 83 | 1016.6 |
| 20260904064404 | 64 | 79 | 1.0 | 3.0 | 0.00 | 0.01 | 0.00 | 83 | 1016.6 |
| 20260904063905 | 64 | 58 | 0.0 | 0.0 | 0.00 | 0.01 | 0.00 | 84 | 1016.5 |
| 20260904062904 | 63 | 58 | 0.0 | 0.0 | 0.00 | 0.01 | 0.00 | 85 | 1016.5 |
| 20260904062405 | 63 | 58 | 0.0 | 1.0 | 0.00 | 0.01 | 0.00 | 85 | 1016.4 |
| 20260904061404 | 63 | 58 | 0.0 | 0.0 | 0.00 | 0.01 | 0.00 | 86 | 1016.5 |
| 20260904060904 | 62 | 58 | 0.0 | 2.0 | 0.00 | 0.01 | 0.00 | 86 | 1016.4 |
| 20260904060404 | 62 | 58 | 0.0 | 2.0 | 0.00 | 0.01 | 0.00 | 86 | 1016.4 |
| 20260904055905 | 62 | 58 | 0.0 | 2.0 | 0.00 | 0.01 | 0.00 | 87 | 1016.3 |
| 20260904054404 | 61 | 58 | 1.0 | 2.0 | 0.00 | 0.01 | 0.00 | 87 | 1016.3 |
| 20260904053904 | 61 | 58 | 2.0 | 3.0 | 0.00 | 0.01 | 0.00 | 87 | 1016.4 |
| 20260904053404 | 61 | 58 | 1.0 | 2.0 | 0.00 | 0.01 | 0.00 | 87 | 1016.3 |
| 20260904052905 | 61 | 58 | 1.0 | 2.0 | 0.00 | 0.01 | 0.00 | 87 | 1016.3 |
| 20260904052404 | 61 | 58 | 1.0 | 3.0 | 0.00 | 0.01 | 0.00 | 88 | 1016.2 |
| 20260904051905 | 60 | 56 | 1.0 | 3.0 | 0.00 | 0.01 | 0.00 | 88 | 1016.2 |
| 20260904051404 | 60 | 51 | 0.0 | 2.0 | 0.00 | 0.01 | 0.00 | 89 | 1016.2 |
| 20260904050904 | 60 | 51 | 0.0 | 2.0 | 0.00 | 0.01 | 0.00 | 89 | 1016.2 |
| 20260904050404 | 60 | 51 | 1.0 | 3.0 | 0.00 | 0.01 | 0.00 | 89 | 1016.3 |
| 20260904045904 | 60 | 51 | 1.0 | 3.0 | 0.00 | 0.01 | 0.00 | 89 | 1016.4 |
| 20260904045404 | 60 | 51 | 1.0 | 3.0 | 0.00 | 0.01 | 0.00 | 89 | 1016.4 |
| 20260904044904 | 60 | 51 | 0.0 | 1.0 | 0.00 | 0.01 | 0.00 | 89 | 1016.4 |
| 20260904044404 | 59 | 51 | 0.0 | 2.0 | 0.00 | 0.01 | 0.00 | 89 | 1016.3 |
| 20260904043904 | 59 | 51 | 1.0 | 3.0 | 0.00 | 0.01 | 0.00 | 89 | 1016.2 |
| 20260904043404 | 59 | 51 | 1.0 | 2.0 | 0.00 | 0.01 | 0.00 | 89 | 1016.4 |
| 20260904042904 | 59 | 51 | 1.0 | 2.0 | 0.00 | 0.01 | 0.00 | 89 | 1016.3 |
| 20260904041904 | 59 | 51 | 1.0 | 2.0 | 0.00 | 0.01 | 0.00 | 89 | 1016.3 |
| 20260904041404 | 59 | 51 | 0.0 | 1.0 | 0.00 | 0.01 | 0.00 | 89 | 1016.4 |
| 20260904040904 | 59 | 51 | 0.0 | 2.0 | 0.00 | 0.01 | 0.00 | 89 | 1016.2 |
| 20260904040404 | 59 | 51 | 0.0 | 1.0 | 0.00 | 0.01 | 0.00 | 89 | 1016.4 |
| 20260904035904 | 59 | 51 | 0.0 | 2.0 | 0.00 | 0.01 | 0.00 | 89 | 1016.4 |
| 20260904035405 | 59 | 51 | 1.0 | 2.0 | 0.00 | 0.01 | 0.00 | 89 | 1016.3 |
| 20260904034904 | 59 | 51 | 1.0 | 3.0 | 0.00 | 0.01 | 0.00 | 89 | 1016.3 |
| 20260904034404 | 59 | 51 | 1.0 | 2.0 | 0.00 | 0.01 | 0.00 | 89 | 1016.3 |
| 20260904033904 | 59 | 51 | 1.0 | 2.0 | 0.00 | 0.01 | 0.00 | 89 | 1016.3 |
| 20260904033405 | 59 | 51 | 0.0 | 1.0 | 0.00 | 0.01 | 0.00 | 89 | 1016.3 |
| 20260904032904 | 59 | 51 | 0.0 | 1.0 | 0.00 | 0.01 | 0.00 | 89 | 1016.4 |
| 20260904032404 | 59 | 51 | 0.0 | 1.0 | 0.00 | 0.01 | 0.00 | 89 | 1016.4 |
| 20260904031904 | 59 | 51 | 0.0 | 0.0 | 0.00 | 0.01 | 0.00 | 89 | 1016.5 |
| 20260904031404 | 58 | 51 | 0.0 | 1.0 | 0.00 | 0.01 | 0.00 | 89 | 1016.6 |
| 20260904030904 | 58 | 51 | 0.0 | 2.0 | 0.00 | 0.01 | 0.00 | 89 | 1016.7 |
| 20260904030404 | 58 | 51 | 0.0 | 1.0 | 0.00 | 0.01 | 0.00 | 89 | 1016.7 |
| 20260904025905 | 58 | 51 | 0.0 | 0.0 | 0.00 | 0.01 | 0.00 | 89 | 1016.6 |
| 20260904025404 | 58 | 51 | 0.0 | 0.0 | 0.00 | 0.01 | 0.00 | 89 | 1016.5 |
| 20260904024405 | 58 | 51 | 1.0 | 3.0 | 0.00 | 0.01 | 0.00 | 89 | 1016.4 |
| 20260904023905 | 58 | 51 | 1.0 | 2.0 | 0.00 | 0.01 | 0.00 | 89 | 1016.5 |
| 20260904022905 | 58 | 51 | 0.0 | 2.0 | 0.00 | 0.01 | 0.00 | 89 | 1016.5 |
| 20260904022404 | 58 | 51 | 0.0 | 2.0 | 0.00 | 0.01 | 0.00 | 89 | 1016.3 |
| 20260904021905 | 58 | 51 | 1.0 | 3.0 | 0.00 | 0.01 | 0.00 | 89 | 1016.3 |
| 20260904021405 | 58 | 51 | 1.0 | 3.0 | 0.00 | 0.01 | 0.00 | 89 | 1016.3 |
| 20260904020904 | 58 | 51 | 0.0 | 3.0 | 0.00 | 0.01 | 0.00 | 89 | 1016.2 |
| 20260904015904 | 58 | 51 | 0.0 | 1.0 | 0.00 | 0.01 | 0.00 | 89 | 1016.2 |
| 20260904015405 | 58 | 51 | 0.0 | 1.0 | 0.00 | 0.01 | 0.00 | 89 | 1016.3 |
| 20260904014904 | 58 | 51 | 1.0 | 2.0 | 0.00 | 0.01 | 0.00 | 89 | 1016.4 |
| 20260904014404 | 58 | 51 | 1.0 | 1.0 | 0.00 | 0.01 | 0.00 | 89 | 1016.5 |
| 20260904013904 | 58 | 51 | 0.0 | 2.0 | 0.00 | 0.01 | 0.00 | 90 | 1016.5 |
| 20260904012904 | 58 | 51 | 1.0 | 2.0 | 0.00 | 0.01 | 0.00 | 89 | 1016.5 |
| 20260904012405 | 58 | 51 | 0.0 | 2.0 | 0.00 | 0.01 | 0.00 | 89 | 1016.5 |
| 20260904011904 | 58 | 51 | 0.0 | 2.0 | 0.00 | 0.01 | 0.00 | 89 | 1016.6 |
| 20260904011405 | 58 | 51 | 0.0 | 2.0 | 0.00 | 0.01 | 0.00 | 89 | 1016.6 |
| 20260904010904 | 58 | 51 | 1.0 | 2.0 | 0.00 | 0.01 | 0.00 | 89 | 1016.7 |
| 20260904010405 | 58 | 51 | 0.0 | 2.0 | 0.00 | 0.01 | 0.00 | 89 | 1016.7 |
| 20260904005905 | 58 | 51 | 0.0 | 2.0 | 0.00 | 0.01 | 0.00 | 89 | 1016.7 |
| 20260904005404 | 58 | 51 | 0.0 | 0.0 | 0.00 | 0.01 | 0.00 | 89 | 1016.6 |
| 20260904004905 | 58 | 51 | 0.0 | 0.0 | 0.00 | 0.01 | 0.00 | 89 | 1016.7 |
| 20260904004405 | 58 | 51 | 0.0 | 0.0 | 0.00 | 0.01 | 0.00 | 90 | 1016.7 |
| 20260904003905 | 58 | 51 | 1.0 | 3.0 | 0.00 | 0.01 | 0.00 | 90 | 1016.8 |
| 20260904003404 | 58 | 44 | 2.0 | 3.0 | 0.00 | 0.01 | 0.00 | 89 | 1016.7 |
| 20260904002904 | 58 | 57 | 2.0 | 3.0 | 0.00 | 0.01 | 0.00 | 89 | 1016.7 |
| 20260904002404 | 58 | 44 | 1.0 | 2.0 | 0.00 | 0.01 | 0.00 | 89 | 1016.8 |
| 20260904001905 | 58 | 44 | 0.0 | 3.0 | 0.00 | 0.01 | 0.00 | 89 | 1016.8 |
| 20260904001405 | 58 | 44 | 1.0 | 3.0 | 0.00 | 0.01 | 0.00 | 89 | 1016.7 |
| 20260904000904 | 58 | 44 | 0.0 | 2.0 | 0.00 | 0.01 | 0.00 | 89 | 1016.8 |
| 20260904000404 | 58 | 44 | 0.0 | 2.0 | 0.00 | 0.01 | 0.00 | 89 | 1016.9 |
| 20260903235905 | 58 | 44 | 2.0 | 3.0 | 0.00 | 0.01 | 0.00 | 89 | 1016.9 |
| 20260903234905 | 58 | 44 | 0.0 | 0.0 | 0.00 | 0.01 | 0.00 | 89 | 1017.1 |
| 20260903234404 | 58 | 44 | 0.0 | 0.0 | 0.00 | 0.01 | 0.00 | 89 | 1017.1 |
| 20260903233904 | 58 | 44 | 0.0 | 0.0 | 0.00 | 0.01 | 0.00 | 89 | 1017.0 |
| 20260903233404 | 58 | 44 | 0.0 | 1.0 | 0.00 | 0.01 | 0.00 | 89 | 1017.0 |
| 20260903232404 | 58 | 44 | 2.0 | 3.0 | 0.00 | 0.01 | 0.00 | 89 | 1016.9 |
| 20260903231404 | 58 | 53 | 2.0 | 3.0 | 0.00 | 0.01 | 0.00 | 88 | 1017.0 |
| 20260903230904 | 58 | 56 | 1.0 | 2.0 | 0.00 | 0.01 | 0.00 | 88 | 1017.1 |
| 20260903230404 | 58 | 56 | 1.0 | 2.0 | 0.00 | 0.01 | 0.00 | 87 | 1017.1 |
| 20260903225904 | 58 | 56 | 0.0 | 0.0 | 0.00 | 0.01 | 0.00 | 87 | 1017.2 |
| 20260903225404 | 59 | 56 | 0.0 | 0.0 | 0.00 | 0.01 | 0.00 | 87 | 1017.2 |
| 20260903224904 | 59 | 56 | 0.0 | 1.0 | 0.00 | 0.01 | 0.00 | 87 | 1017.2 |
| 20260903224405 | 59 | 56 | 0.0 | 0.0 | 0.00 | 0.01 | 0.00 | 87 | 1017.2 |
| 20260903223904 | 59 | 56 | 0.0 | 0.0 | 0.00 | 0.01 | 0.00 | 87 | 1017.1 |
| 20260903223405 | 59 | 56 | 0.0 | 0.0 | 0.00 | 0.01 | 0.00 | 87 | 1017.1 |
| 20260903222904 | 59 | 56 | 0.0 | 0.0 | 0.00 | 0.01 | 0.00 | 86 | 1017.0 |
| 20260903221904 | 59 | 56 | 0.0 | 0.0 | 0.00 | 0.01 | 0.00 | 87 | 1017.1 |
| 20260903221404 | 59 | 56 | 0.0 | 0.0 | 0.00 | 0.01 | 0.00 | 86 | 1017.0 |
| 20260903220904 | 59 | 56 | 0.0 | 1.0 | 0.00 | 0.01 | 0.00 | 86 | 1017.1 |
| 20260903220404 | 59 | 56 | 0.0 | 0.0 | 0.00 | 0.01 | 0.00 | 86 | 1017.2 |
| 20260903215405 | 60 | 56 | 0.0 | 0.0 | 0.00 | 0.01 | 0.01 | 86 | 1017.1 |
| 20260903214904 | 60 | 56 | 0.0 | 0.0 | 0.00 | 0.01 | 0.01 | 86 | 1017.1 |
| 20260903214404 | 60 | 56 | 0.0 | 0.0 | 0.00 | 0.01 | 0.01 | 86 | 1017.2 |
| 20260903213906 | 60 | 56 | 0.0 | 0.0 | 0.00 | 0.01 | 0.01 | 86 | 1017.1 |
| 20260903213404 | 60 | 56 | 0.0 | 2.0 | 0.00 | 0.01 | 0.01 | 85 | 1017.0 |
| 20260903212904 | 60 | 55 | 0.0 | 0.0 | 0.00 | 0.01 | 0.01 | 85 | 1017.0 |
| 20260903212404 | 60 | 55 | 0.0 | 2.0 | 0.00 | 0.01 | 0.01 | 84 | 1017.0 |
| 20260903211905 | 60 | 55 | 1.0 | 2.0 | 0.00 | 0.01 | 0.01 | 84 | 1016.9 |
| 20260903211404 | 60 | 55 | 2.0 | 3.0 | 0.00 | 0.01 | 0.01 | 84 | 1016.8 |
| 20260903210904 | 60 | 57 | 0.0 | 2.0 | 0.00 | 0.01 | 0.01 | 84 | 1016.8 |